Theta_e
320 320 320 320 319 320 320 320 320 320 320 320 320 320 320 320 320 320 320 319 320 319 319 319 319 319 319 320 320 321 320 320 320 321 322 325 336 346 344 344 351 345 338 320 321 323 328 333 334 339 337 336 338 337 342 342 342 340 330 329 322 327 323 328 327 329 333 331 335 338 340 337 333 339 342 345 339 339 338 338 336 333 333 336 337 340 341 342
320 320 320 319 319 319 319 319 320 320 320 320 319 319 320 320 320 320 319 319 319 319 319 319 319 320 319 320 320 321 320 320 318 319 319 337 351 343 343 344 343 342 334 318 318 321 329 332 332 333 332 332 342 336 341 336 341 333 329 328 324 327 329 335 336 335 334 333 338 339 340 339 337 341 341 335 334 335 334 333 330 330 333 336 337 339 340 341
320 320 320 320 320 320 319 319 319 319 319 319 319 319 319 319 319 319 319 320 319 319 319 319 319 319 320 320 321 321 321 320 322 320 325 349 348 343 347 346 344 341 319 317 321 324 331 333 330 328 330 331 337 332 337 334 336 337 330 325 328 334 334 338 340 338 340 339 337 339 340 340 341 341 344 335 334 335 329 327 328 329 330 333 335 337 339 341
320 320 319 319 319 319 319 319 319 319 319 319 319 319 319 319 319 319 319 319 319 319 319 318 319 319 320 320 321 322 320 320 318 324 329 349 341 349 339 347 347 337 320 320 324 329 335 334 331 327 325 328 333 335 331 335 330 335 331 327 332 337 332 338 340 341 341 343 340 340 341 338 341 341 341 337 331 331 331 332 329 329 331 332 335 337 338 339
319 319 319 319 319 319 319 319 319 319 319 319 319 319 319 319 318 319 319 319 319 319 319 318 319 320 320 321 320 322 320 312 321 330 332 341 352 345 346 347 345 321 319 321 325 329 333 331 329 324 322 323 330 331 331 334 337 333 331 335 335 336 333 337 341 342 342 343 341 339 337 335 342 342 339 337 330 327 331 335 334 334 334 334 334 336 338 338
319 319 319 318 318 318 319 318 318 318 318 318 318 318 318 318 318 318 318 318 318 318 318 319 319 320 321 321 321 320 317 301 318 326 348 350 347 343 343 339 342 325 320 320 323 328 328 328 327 320 318 321 325 325 331 333 336 328 331 335 337 338 335 339 338 340 342 341 338 336 337 340 337 335 339 336 334 336 340 337 336 335 336 337 337 336 335 337
319 319 319 319 318 319 319 319 318 318 318 318 318 318 318 318 318 318 317 317 317 318 318 319 320 321 321 321 322 319 315 316 327 332 347 345 344 339 336 334 339 325 324 321 323 324 326 326 324 319 319 321 323 326 330 332 335 332 329 335 336 337 335 340 340 342 342 342 336 341 341 336 334 328 336 334 339 340 341 339 336 336 337 337 335 335 336 337
318 318 318 318 318 318 318 318 318 319 318 318 318 318 318 318 317 317 317 317 318 318 319 320 321 321 321 322 318 319 319 315 333 338 350 346 340 332 334 319 319 320 323 323 323 323 325 323 321 320 318 318 325 326 331 330 331 328 331 335 335 338 336 338 340 340 340 339 340 341 335 334 338 336 336 333 336 338 339 337 336 336 336 336 335 335 336 336
319 318 318 318 318 318 318 318 318 318 318 318 318 318 318 317 317 317 317 318 318 319 319 320 320 321 323 321 318 314 314 324 331 337 343 330 325 322 320 316 319 318 323 327 327 324 323 322 321 321 315 319 324 324 328 326 323 330 333 337 338 336 338 341 341 342 343 343 343 335 334 339 341 343 335 336 337 338 338 336 335 335 334 334 334 335 335 335
319 318 318 318 318 318 318 318 318 318 318 318 318 317 317 317 316 317 317 318 318 319 319 320 321 322 321 320 321 312 317 324 330 338 334 328 322 319 317 318 318 319 322 325 326 323 321 323 320 322 322 321 323 324 329 327 322 333 333 334 335 336 336 339 340 341 341 339 341 335 334 337 343 338 327 338 338 338 337 334 334 333 332 332 333 334 335 335
318 318 318 318 318 318 318 318 318 318 318 318 317 316 316 317 316 317 317 318 318 319 320 321 322 322 321 320 313 309 319 321 328 328 333 326 320 318 314 317 317 318 321 323 321 322 323 324 324 322 320 319 325 325 327 327 327 330 335 337 336 337 337 341 341 341 341 336 341 339 335 339 340 338 330 335 337 338 333 333 332 332 332 331 333 334 335 335
318 318 318 318 318 318 318 318 318 318 318 317 316 316 316 316 316 316 317 317 318 319 320 321 322 323 323 321 316 313 319 322 328 328 324 324 319 319 317 319 317 316 320 321 320 320 321 322 322 319 313 324 318 326 326 331 327 335 335 329 330 335 335 337 336 339 340 334 341 342 334 332 333 330 336 337 339 337 334 332 331 331 331 332 333 333 335 335
318 318 318 318 318 317 318 318 318 318 317 316 316 316 316 316 316 316 317 317 319 319 321 323 323 325 323 319 317 317 321 325 327 325 324 323 323 322 322 323 319 318 322 321 321 321 321 321 321 317 319 319 319 319 326 327 325 335 335 328 325 328 326 333 338 339 336 337 342 342 316 322 331 335 336 339 337 336 332 330 330 330 331 332 332 332 334 335
318 318 318 318 317 318 318 318 317 317 316 316 316 315 315 315 316 316 317 317 319 319 321 323 324 324 323 322 314 319 321 327 326 322 322 323 320 319 321 322 320 320 323 322 324 324 321 322 321 319 321 316 316 330 326 325 325 318 328 329 323 319 320 333 337 338 333 340 341 341 317 323 331 335 337 339 338 334 330 330 331 331 331 332 332 332 334 334
318 318 318 317 317 317 317 317 316 316 316 316 315 314 315 314 315 317 318 318 320 322 323 324 323 322 321 324 319 320 343 328 320 321 321 318 317 315 317 320 319 322 324 323 322 323 323 321 319 315 313 321 322 319 319 320 320 319 318 316 322 318 322 332 335 335 329 336 341 334 318 324 330 334 336 339 338 336 331 331 330 331 332 332 331 331 333 334
318 317 317 317 317 317 317 316 316 315 316 315 314 314 315 316 317 318 319 320 323 324 326 323 326 325 318 315 312 330 323 318 318 322 322 320 316 314 318 318 320 321 321 321 322 322 321 320 314 314 314 318 316 317 317 316 316 318 315 315 317 318 321 324 331 335 337 335 336 333 321 326 329 337 336 339 337 335 331 330 330 331 332 331 330 331 332 333
317 317 317 317 317 317 316 316 315 315 314 314 314 315 317 319 319 319 320 321 324 327 324 324 327 328 313 313 321 316 318 322 323 321 322 323 323 318 316 315 315 316 319 320 320 319 318 314 315 313 314 311 315 318 314 311 311 312 315 312 317 316 322 317 328 334 335 334 328 333 326 327 331 335 335 337 336 335 331 330 330 332 331 331 330 331 331 331
318 317 317 317 317 316 316 315 315 315 314 313 314 315 317 321 322 319 321 320 324 328 327 328 326 318 311 314 307 316 323 321 319 320 320 323 323 318 316 313 314 315 315 314 316 312 315 309 312 306 310 310 311 312 310 306 309 310 312 312 313 319 321 319 320 329 334 332 329 330 328 327 331 334 335 336 338 335 330 330 330 331 331 331 329 331 330 329
318 317 317 316 316 316 315 315 315 314 314 313 315 317 318 320 321 323 322 327 324 324 317 314 317 305 301 310 316 317 317 322 325 320 319 319 322 320 317 316 313 311 308 307 309 310 312 309 309 306 303 306 308 310 312 314 315 312 313 314 314 315 320 320 327 333 332 326 325 325 324 327 331 334 334 337 336 333 331 332 332 332 331 332 330 331 330 330
317 317 317 316 316 316 315 315 314 313 312 315 323 324 325 324 323 318 324 325 323 317 309 310 314 314 313 315 314 320 321 320 318 318 321 322 319 318 316 315 311 310 307 303 307 308 312 303 301 301 305 308 310 312 315 317 317 315 313 314 314 314 319 324 328 332 334 329 327 328 328 328 329 334 338 336 337 335 333 329 330 332 331 330 329 331 330 330
317 317 316 316 316 315 315 314 313 312 312 314 319 318 316 311 307 307 313 318 325 316 313 313 312 312 311 315 315 315 311 314 318 319 320 324 321 316 313 313 308 303 305 307 307 311 310 303 302 305 307 310 311 313 315 316 317 314 312 311 315 314 314 320 326 328 332 327 323 328 325 327 329 333 336 342 335 334 333 330 330 330 330 331 330 331 331 331
317 316 316 316 315 315 314 313 312 311 310 314 318 317 320 316 318 321 317 309 313 315 315 313 316 313 316 314 317 319 317 312 311 319 322 320 317 311 312 310 308 303 306 306 307 306 303 302 305 307 310 311 312 313 314 315 314 315 312 311 311 314 319 323 327 329 329 326 321 324 322 323 327 331 336 337 338 335 336 335 330 331 331 334 331 332 333 332
317 316 316 316 315 314 313 312 311 307 315 320 320 320 317 319 324 325 321 315 312 313 313 313 312 314 314 318 316 316 312 312 310 315 318 317 315 312 311 307 307 307 306 305 301 302 300 303 307 309 310 309 309 311 312 314 314 313 312 310 309 314 313 313 322 329 328 325 322 324 323 325 333 334 334 337 336 335 339 339 339 335 332 332 331 333 332 332
317 316 316 316 315 314 313 312 308 313 317 319 320 320 322 324 324 324 317 311 309 311 313 311 314 314 312 310 314 314 312 314 315 313 321 316 312 314 311 309 307 307 305 305 304 303 303 307 310 309 309 308 307 309 312 312 310 313 312 311 310 316 314 315 319 325 328 328 330 324 319 321 324 326 330 335 339 336 338 337 337 339 345 335 337 335 334 334
316 316 316 315 314 313 311 309 312 319 323 322 319 324 324 325 327 324 316 313 312 308 316 314 316 315 315 317 319 313 315 315 316 319 320 317 314 312 309 312 309 305 306 307 305 303 304 310 311 308 308 308 307 307 311 312 309 311 313 312 312 312 315 318 320 321 319 317 322 321 310 311 319 323 327 332 334 331 335 336 338 339 338 338 332 334 335 337
316 316 316 315 315 312 309 315 321 322 320 318 320 323 324 324 327 326 316 307 300 306 313 304 315 308 319 314 316 316 313 308 317 320 320 318 321 315 313 308 310 304 306 306 304 304 305 310 310 308 306 307 307 306 312 313 309 308 310 314 313 313 316 319 317 318 311 308 318 324 310 307 318 319 324 330 329 329 335 336 334 337 339 338 333 334 334 335
316 316 315 315 314 310 316 315 324 319 316 317 322 324 324 324 333 323 311 303 297 304 305 309 310 309 315 314 314 316 302 305 316 316 313 320 314 321 310 308 309 309 310 310 305 301 307 306 308 309 307 306 306 305 313 314 310 307 313 313 313 312 311 312 313 313 312 317 321 322 317 309 310 317 325 330 328 329 332 334 337 338 340 341 336 334 335 336
316 315 314 313 312 310 317 319 317 316 317 320 324 324 325 330 329 323 310 295 291 308 302 307 309 316 313 314 313 309 310 314 308 311 316 318 317 314 311 309 307 307 310 308 298 306 307 304 307 307 308 309 306 311 314 315 310 310 313 314 312 311 312 311 312 310 311 311 311 315 321 309 310 319 327 329 324 325 327 332 335 337 338 340 339 336 336 337
315 314 313 313 311 311 314 314 318 314 320 323 324 324 324 329 321 311 303 292 302 304 315 304 317 313 311 312 309 311 310 313 306 313 318 319 319 314 308 310 311 309 310 308 302 305 307 307 310 310 309 307 312 314 315 314 309 314 316 316 314 313 313 312 309 309 309 307 303 309 314 307 310 320 320 323 323 322 326 331 335 338 337 337 339 338 336 337
315 314 313 311 311 316 315 317 318 323 324 325 324 325 324 321 314 304 298 288 306 298 307 308 307 305 309 306 307 309 309 310 311 313 316 313 314 315 314 318 311 309 307 309 307 308 309 314 316 311 309 311 312 314 314 314 315 317 315 313 312 311 310 311 310 308 306 302 305 310 313 311 304 315 318 319 320 324 329 333 336 339 339 338 339 340 337 335
314 312 311 310 315 323 326 320 325 326 326 327 325 322 320 315 303 299 292 296 305 304 308 307 305 309 305 303 302 307 307 308 309 312 310 312 312 311 312 309 311 308 307 307 306 308 309 310 308 311 314 313 313 310 314 315 315 314 311 309 308 307 309 307 306 308 300 299 308 312 312 313 303 313 322 326 329 330 330 330 334 336 338 339 340 343 344 339
311 310 310 311 317 320 315 314 320 325 328 325 323 318 314 303 308 297 292 308 297 302 302 303 305 305 305 306 303 305 304 306 309 308 308 308 308 303 306 302 306 299 299 301 301 307 305 307 311 311 316 312 310 308 310 312 312 311 310 309 302 301 302 298 302 297 298 298 308 312 314 310 309 318 324 327 329 330 332 333 334 336 337 340 344 342 341 344
309 309 308 311 314 317 321 323 324 329 326 323 319 316 308 301 294 298 299 302 298 305 302 307 304 304 305 304 304 305 307 303 306 305 309 308 306 308 309 308 308 305 298 302 302 301 302 308 309 310 311 313 311 304 305 304 308 309 306 305 301 297 297 294 298 301 301 305 310 310 316 308 316 319 325 327 330 332 334 335 336 335 336 338 341 344 344 345
308 309 314 319 316 321 323 329 329 326 322 322 316 310 306 298 297 305 302 302 302 307 306 304 305 305 304 301 303 305 301 307 305 306 308 306 306 304 306 308 308 306 305 303 299 300 296 297 304 307 304 312 310 309 308 307 307 307 310 307 304 302 298 295 298 296 298 301 307 312 308 311 306 316 326 327 331 332 334 335 336 338 338 340 342 342 343 345
307 309 315 323 325 327 327 327 325 325 323 317 311 306 299 297 301 300 300 302 304 304 304 306 303 302 302 303 305 306 305 302 307 306 304 303 303 304 304 305 308 307 307 299 303 301 300 300 307 311 310 311 308 312 313 310 308 309 310 310 305 303 307 298 302 302 301 302 302 306 306 315 315 324 329 331 330 329 331 334 336 336 338 340 339 338 339 342
311 326 324 326 327 327 326 326 325 325 321 315 307 303 300 302 298 303 301 306 306 303 303 305 304 301 301 301 305 303 307 303 305 305 303 304 305 304 306 306 306 307 304 300 303 298 301 299 308 309 312 310 309 311 312 312 299 306 306 302 305 312 308 303 304 305 304 302 300 308 311 317 322 324 326 328 330 327 329 333 334 335 337 337 337 336 336 340
325 327 317 321 323 326 328 326 326 323 320 312 306 302 303 304 306 305 308 304 303 303 303 298 301 300 299 299 301 303 304 306 304 303 301 305 302 306 305 307 309 308 309 306 302 307 299 299 306 307 305 311 312 312 312 312 311 307 301 304 310 312 310 305 297 302 300 296 300 306 307 310 312 308 323 325 324 326 327 332 334 337 335 335 336 336 335 337
324 325 322 322 324 325 325 327 324 323 316 310 305 308 307 303 306 306 307 305 306 306 302 301 301 303 300 300 300 302 304 301 301 303 301 303 299 308 304 305 307 307 309 311 304 306 306 298 303 308 308 310 313 311 308 310 312 306 306 312 303 298 297 303 301 294 295 295 298 303 305 311 311 313 320 320 322 325 328 328 331 333 334 333 334 336 340 341
327 322 317 321 324 323 324 328 324 318 313 306 306 303 305 305 308 306 307 305 307 304 302 303 300 303 302 300 301 303 303 299 301 302 300 302 298 305 304 306 305 309 309 309 306 307 307 298 301 308 307 310 309 308 300 303 308 310 312 308 311 306 301 299 301 302 301 296 297 300 305 305 314 317 319 322 323 324 327 328 330 331 334 334 336 338 339 339
315 315 315 322 323 324 329 324 318 315 308 303 305 303 307 306 307 308 308 307 304 304 303 303 304 301 302 303 303 300 303 302 302 301 301 303 301 306 304 308 305 307 309 309 306 308 303 308 296 304 309 308 301 305 303 304 301 303 304 304 306 305 308 306 305 301 299 298 299 298 299 308 320 330 323 324 325 329 330 329 332 335 336 338 337 338 340 340
321 314 314 324 323 325 323 318 310 308 308 309 309 306 306 304 307 308 308 308 306 309 304 303 304 301 302 301 302 304 302 303 302 300 302 302 301 299 306 306 307 305 308 307 304 306 303 304 298 301 302 302 304 309 308 308 307 305 304 303 305 303 300 297 296 305 302 298 294 297 299 311 323 333 329 331 331 329 333 332 332 333 338 338 339 336 340 340
317 313 313 323 323 321 316 308 309 311 308 305 304 306 304 311 305 307 307 308 307 306 308 305 306 304 304 304 303 302 302 301 302 302 302 300 303 304 305 309 308 308 305 302 303 307 306 303 301 298 300 302 306 308 312 311 310 308 307 304 307 306 305 301 294 299 303 302 304 302 299 310 325 329 332 331 330 331 331 332 332 333 333 335 339 340 340 344
314 312 322 324 324 319 312 307 311 309 304 307 310 309 308 305 303 306 306 307 305 307 305 305 305 303 306 304 303 303 304 301 301 300 302 303 303 306 307 307 309 307 307 305 307 307 314 302 298 300 304 307 309 311 311 311 309 306 307 308 306 303 305 304 302 304 301 303 299 299 297 311 323 328 328 333 333 334 332 333 334 334 337 341 340 340 344 344
314 315 316 323 325 320 310 303 304 305 306 308 307 306 307 305 305 306 305 307 305 306 305 305 306 305 304 305 306 303 304 298 302 303 302 303 303 308 308 307 308 305 306 305 303 306 300 304 301 297 298 300 303 306 306 309 308 305 305 307 307 307 306 307 307 308 301 302 302 300 295 310 325 329 330 329 330 330 333 335 335 334 338 340 340 343 345 346
317 319 318 317 320 316 306 310 308 306 306 306 305 304 303 304 306 306 306 305 306 306 306 306 307 306 306 306 304 305 306 303 300 306 304 304 304 308 308 307 308 306 309 310 313 309 302 301 301 295 292 289 290 292 295 298 301 305 307 307 308 306 305 303 299 303 296 304 305 301 306 316 323 326 325 328 327 328 332 334 335 336 338 338 341 342 344 345
313 309 311 312 312 312 312 315 311 307 306 306 303 304 305 303 306 307 306 305 306 306 306 305 308 306 305 305 304 303 305 306 302 303 303 303 305 307 308 308 307 307 311 313 310 308 302 304 303 301 299 297 298 303 306 308 305 301 304 306 305 307 308 308 306 305 300 304 304 310 309 314 318 323 325 325 330 327 327 328 330 331 336 338 340 342 342 342
315 308 309 305 310 309 307 309 308 308 304 307 303 304 301 303 304 304 306 302 308 306 307 306 305 303 305 303 305 303 303 305 306 304 304 305 306 308 309 308 308 311 314 309 314 306 304 300 302 304 303 303 304 304 306 306 303 304 303 303 306 306 308 306 303 301 311 304 297 311 315 311 313 318 321 325 326 328 326 328 329 329 332 333 334 338 340 341
306 312 314 315 306 303 304 306 309 307 307 306 305 305 303 303 303 302 304 306 306 308 302 306 305 305 305 304 304 302 303 305 305 303 305 306 304 307 306 309 308 314 314 308 311 307 303 299 303 304 302 303 305 305 306 305 305 305 305 305 305 307 307 305 305 307 307 303 301 308 313 312 313 317 320 324 327 328 330 331 332 333 334 333 332 333 338 338
315 316 314 317 308 310 309 309 310 307 307 306 305 306 303 302 303 305 305 304 304 305 305 302 304 306 306 308 304 302 305 300 301 305 305 304 305 305 303 306 308 311 309 307 308 311 305 300 302 302 301 303 304 305 306 304 304 305 305 306 306 306 306 307 307 308 307 307 309 309 312 316 321 319 322 326 329 331 333 335 335 334 333 333 333 331 332 335
315 316 316 319 317 311 311 311 309 307 305 308 304 304 304 303 303 305 306 303 301 304 307 303 304 306 306 305 306 302 307 306 305 304 307 306 304 305 304 305 304 308 309 306 306 311 304 301 303 302 300 300 304 305 305 305 304 302 304 305 305 306 306 307 308 310 311 310 309 311 311 315 322 328 327 328 332 333 333 331 333 334 334 332 332 331 332 334
320 323 324 316 311 311 311 310 309 307 305 306 303 304 305 305 304 306 304 305 304 305 304 303 307 306 305 304 306 305 308 308 307 306 307 307 302 308 302 306 307 303 306 305 308 307 306 302 305 303 298 298 302 303 304 304 304 303 303 304 305 305 303 305 307 313 311 309 310 310 309 314 321 327 327 330 330 331 329 330 333 332 334 332 330 330 331 332
324 327 327 319 309 315 308 310 309 307 302 307 306 306 305 305 306 306 303 305 306 307 308 307 307 305 306 305 303 306 308 308 308 308 309 308 308 307 308 307 306 304 302 303 307 303 305 305 303 301 296 296 301 303 302 302 301 298 300 305 306 308 308 309 312 313 312 313 310 307 312 315 323 325 325 326 327 325 324 325 328 332 332 335 332 332 333 337
Wind_Speed
13 13 12 12 12 12 12 11 12 12 12 12 12 12 11 11 11 11 10 10 10 11 11 12 12 13 14 14 15 15 15 12 14 11 12 17 5 6 7 3 5 3 4 7 10 11 11 11 11 10 9 8 8 8 5 8 5 5 4 5 4 4 2 5 6 4 9 12 11 9 8 10 12 9 6 7 8 8 9 8 11 15 13 17 19 19 19 18
13 13 13 13 13 12 12 12 11 12 12 12 12 12 12 11 11 11 10 10 10 11 11 11 12 13 14 14 14 15 13 12 13 15 18 0 8 7 6 4 5 6 4 10 12 11 11 9 9 9 8 8 6 7 1 3 4 4 5 5 4 3 3 4 4 7 13 12 12 9 9 8 10 10 9 9 11 10 9 10 15 16 20 20 20 20 19 18
13 13 14 13 13 13 12 12 12 12 12 12 12 12 12 11 11 11 11 11 11 11 12 12 12 14 14 14 13 14 13 13 12 17 14 11 8 7 7 7 6 9 11 12 11 12 10 9 6 7 8 8 6 6 5 1 4 3 6 6 3 5 2 4 5 12 8 14 12 9 7 8 10 8 7 10 11 10 10 11 15 19 21 21 20 19 18 17
14 14 14 13 13 13 13 12 12 12 12 12 12 12 12 12 11 11 11 11 11 12 12 13 13 13 13 14 13 12 10 12 9 6 9 7 8 7 8 8 8 10 12 15 13 11 10 11 12 8 8 9 6 8 7 1 4 1 4 6 7 4 1 4 4 9 12 10 10 8 8 10 9 9 8 11 11 9 9 11 17 20 21 21 20 20 17 17
14 14 14 13 13 13 13 13 12 13 12 13 13 12 12 12 12 12 12 12 12 12 12 12 13 13 13 12 13 10 10 8 6 6 8 3 3 7 7 8 8 10 12 13 14 14 11 12 10 8 7 8 9 6 5 4 3 5 5 7 9 7 9 4 5 9 9 6 8 8 10 10 7 6 9 11 9 8 7 11 16 19 21 21 21 19 18 17
14 15 14 14 14 14 14 13 13 13 13 13 13 13 12 12 12 12 12 12 13 12 13 12 13 14 14 12 11 9 6 1 4 6 4 5 6 7 6 6 8 10 10 13 13 11 10 10 11 8 7 8 8 6 2 7 0 1 2 7 8 8 10 10 11 7 10 8 7 8 8 10 8 8 9 9 7 8 6 13 16 18 19 19 18 18 18 17
15 15 15 14 14 14 14 14 13 13 13 13 13 12 13 13 12 12 12 13 13 13 12 13 13 14 14 14 11 7 8 10 4 5 9 7 8 8 6 6 6 9 10 11 12 11 9 11 10 9 8 9 11 5 4 6 3 1 4 5 8 10 15 11 11 10 7 7 6 4 6 8 12 12 8 8 9 11 8 12 17 19 18 18 18 18 17 15
15 14 14 14 14 14 14 14 14 13 13 13 13 13 13 13 13 13 13 13 13 13 13 13 13 13 14 11 7 7 9 5 10 8 9 10 8 8 7 8 9 9 10 12 11 11 10 10 10 9 9 10 2 4 2 7 5 3 7 8 10 11 13 14 11 10 7 3 5 6 9 11 9 9 8 10 10 12 11 13 18 19 18 17 17 18 17 16
15 15 15 15 15 15 14 14 14 14 14 13 13 13 14 13 13 12 13 13 13 13 13 13 13 12 11 7 7 9 1 7 6 11 13 10 10 10 9 8 11 10 10 11 12 11 10 9 11 11 10 10 11 5 3 7 5 6 10 10 9 10 8 7 10 7 4 1 2 9 10 9 8 10 10 9 8 12 16 15 18 19 18 17 16 16 16 16
14 14 15 15 15 15 15 15 14 14 14 14 13 14 14 14 13 13 13 14 14 14 13 13 12 12 10 7 8 8 4 8 4 8 8 8 10 10 11 9 11 11 10 11 11 12 12 9 9 7 11 12 10 7 3 8 2 11 11 10 12 13 8 7 8 6 1 1 3 8 10 8 4 3 8 8 9 12 14 17 17 17 17 16 15 15 14 15
15 15 15 15 15 16 16 15 15 13 14 13 13 14 14 15 14 14 14 14 15 14 13 13 11 11 8 8 9 5 2 8 3 4 5 7 10 9 10 11 10 10 11 10 11 10 11 13 10 6 6 7 7 5 6 9 2 11 13 18 12 6 7 7 7 7 5 3 2 7 10 6 3 3 9 10 10 14 17 17 18 17 16 15 16 15 13 12
15 15 15 15 16 16 15 15 15 13 13 14 13 14 14 15 15 14 15 14 15 15 13 11 11 6 8 9 8 4 6 5 4 4 3 8 8 9 11 11 10 12 11 10 10 9 11 12 10 9 8 9 8 3 6 8 7 20 14 10 8 6 5 3 4 5 0 2 2 4 10 6 3 7 11 10 9 12 16 17 17 16 14 15 15 13 11 12
16 16 16 16 16 16 15 15 15 15 15 14 14 13 15 15 16 15 14 15 12 12 11 10 8 6 8 8 2 5 5 3 2 4 5 7 7 8 9 9 10 11 11 11 7 9 9 10 9 12 10 10 9 6 7 11 7 22 16 14 10 5 2 6 3 4 4 3 6 6 5 5 6 9 10 9 9 11 15 16 16 14 14 14 14 13 11 12
17 17 17 17 17 16 16 15 15 16 16 14 13 15 16 15 15 15 14 14 15 14 12 10 7 7 7 8 4 3 1 3 3 6 8 3 6 6 5 8 10 11 8 11 10 5 9 7 9 10 10 13 9 4 10 9 9 5 15 13 8 9 4 7 3 5 5 3 6 4 1 5 9 9 9 8 9 13 16 16 15 14 14 13 13 13 11 13
18 18 18 18 18 17 16 16 15 15 16 15 12 16 16 15 14 13 13 13 14 14 13 10 7 5 6 5 3 1 6 6 8 4 2 8 5 4 8 8 8 7 6 7 7 7 5 5 7 9 9 9 11 10 8 9 9 5 9 7 7 5 6 4 5 7 6 3 5 2 4 7 10 10 10 9 9 11 15 16 16 15 14 14 13 13 13 12
17 18 18 18 18 17 16 15 15 15 15 15 15 15 15 13 13 11 12 13 14 13 9 8 8 9 9 5 5 3 6 8 8 4 5 3 4 6 5 7 7 9 6 8 5 2 3 6 8 8 9 11 11 8 8 8 8 11 10 7 8 6 9 8 8 5 3 6 1 5 2 6 7 10 11 9 11 10 13 14 15 16 15 15 13 13 13 13
15 16 17 19 18 18 17 14 17 16 15 16 16 15 15 14 12 11 11 11 9 8 6 6 5 8 7 6 3 6 6 3 8 6 4 4 7 6 6 8 7 9 6 7 6 4 6 9 6 9 10 10 8 9 8 8 9 10 10 7 5 7 12 6 4 7 8 8 5 7 4 7 7 12 13 11 10 10 13 13 13 13 13 14 13 12 14 13
18 16 17 17 19 18 17 16 17 17 14 15 14 12 10 9 9 9 10 9 7 7 8 9 8 7 8 6 6 3 7 4 9 5 7 4 7 4 6 6 6 7 8 9 7 10 7 8 8 9 8 11 10 10 9 9 9 7 7 4 4 7 9 9 11 13 13 10 10 11 8 7 9 11 13 12 10 11 13 14 15 15 14 13 13 13 15 13
19 19 16 18 19 19 18 17 17 16 16 18 19 15 16 15 8 8 7 4 4 5 5 6 6 4 9 5 6 4 4 8 1 4 6 8 5 7 5 6 5 8 8 8 7 11 7 8 7 9 11 11 12 11 10 13 13 9 5 7 6 4 8 7 6 13 15 12 11 13 8 9 11 10 13 12 12 13 12 12 12 14 14 13 13 12 13 12
19 17 17 16 17 20 19 18 17 15 16 12 6 5 6 4 4 3 7 8 10 9 7 3 7 5 9 6 6 10 4 4 7 7 3 4 4 8 9 6 8 9 9 8 9 11 6 9 9 11 11 12 13 15 14 16 14 13 7 8 7 9 3 7 8 9 6 8 8 11 5 5 12 11 7 13 12 11 12 14 13 11 12 13 13 14 14 13
16 16 17 15 14 19 19 19 17 15 11 7 9 8 7 12 9 5 5 8 12 3 10 5 6 9 11 5 3 9 6 8 11 6 9 6 9 3 7 8 8 9 9 11 9 8 10 10 11 12 14 14 13 15 15 15 14 11 10 8 8 4 3 6 11 9 3 6 3 5 8 12 11 11 9 6 11 13 11 14 14 16 14 12 14 15 14 14
16 15 16 15 15 14 19 18 18 16 11 6 6 7 10 8 6 7 7 3 5 2 5 1 2 6 4 6 4 4 6 6 7 6 4 8 7 10 10 10 9 9 9 12 9 8 9 11 10 13 13 15 14 14 14 15 12 11 8 9 6 8 8 10 14 18 8 3 3 7 6 8 11 11 7 5 4 7 10 11 12 13 15 10 11 14 13 13
16 16 15 15 14 14 15 16 16 13 5 5 8 14 4 7 6 7 7 9 9 2 10 5 8 8 7 3 3 5 9 9 6 6 8 6 8 11 7 7 9 10 10 11 11 8 9 10 13 13 12 14 16 15 14 13 12 9 8 10 9 12 13 7 7 17 13 6 8 9 6 1 4 6 6 3 1 5 9 8 9 6 13 12 14 12 14 14
15 17 15 15 14 14 17 16 17 8 7 14 11 9 6 6 7 9 10 7 5 7 5 4 5 8 7 10 6 7 10 2 3 10 8 7 10 6 9 6 10 10 10 12 14 10 8 8 12 14 13 14 17 13 10 9 10 10 12 12 8 15 9 9 9 10 9 4 7 8 3 0 3 5 5 4 5 3 4 7 8 6 7 10 9 11 14 15
16 17 17 14 14 15 15 17 7 9 10 12 14 5 5 6 6 9 9 7 7 2 2 5 8 8 6 2 7 7 4 5 9 10 6 7 9 4 10 5 8 10 13 15 12 11 10 12 12 16 15 14 14 12 13 13 9 9 12 16 8 5 9 18 17 11 3 5 6 10 4 3 4 8 8 6 3 5 7 7 6 4 8 10 14 13 13 12
16 14 17 15 16 14 15 6 5 8 8 5 4 5 6 6 7 7 8 7 2 8 6 4 4 4 4 5 3 3 4 7 5 5 3 8 10 11 7 9 7 10 13 2 7 6 9 11 9 11 14 13 15 14 10 10 9 10 10 14 12 11 14 16 19 11 5 4 9 11 6 3 4 8 10 8 8 8 7 5 8 6 10 11 13 12 13 14
15 15 16 15 15 12 7 4 11 15 11 4 2 6 6 6 6 9 7 6 3 3 4 6 4 6 3 5 7 4 7 6 3 4 7 6 10 7 12 4 7 7 11 4 4 9 11 17 10 8 11 15 12 10 7 7 8 11 2 7 10 13 10 5 8 9 6 8 11 14 9 6 7 11 13 12 10 9 8 7 9 8 9 7 11 14 13 14
16 15 13 12 9 4 5 10 13 11 10 8 6 6 7 5 5 5 5 5 8 5 4 5 7 4 7 9 4 8 10 2 5 8 9 7 7 9 9 9 7 5 8 8 10 5 14 14 7 10 12 7 9 7 8 11 11 8 6 8 10 18 10 12 10 3 6 7 9 11 18 10 4 4 13 12 10 9 10 8 9 10 8 8 10 13 13 14
16 14 13 13 12 12 9 6 8 11 11 9 8 8 7 5 7 5 4 5 4 2 2 4 1 6 5 2 10 4 9 5 5 6 4 3 8 10 8 6 12 10 10 8 10 8 10 11 7 5 6 8 7 11 14 12 12 12 14 9 9 13 6 8 9 9 8 6 7 10 11 6 2 5 8 9 8 12 14 15 13 12 12 10 11 13 14 13
15 16 16 13 13 6 5 6 9 11 9 8 9 10 10 9 7 7 6 2 1 5 6 5 4 5 2 10 3 4 7 7 2 4 5 6 7 9 9 10 8 12 14 14 15 15 15 7 7 8 9 9 9 11 9 13 14 12 8 10 5 9 7 6 7 5 8 9 8 10 10 8 3 8 11 11 11 16 12 10 9 10 11 12 12 10 13 15
17 13 11 8 5 5 5 8 8 11 8 8 10 12 9 6 6 5 7 7 6 6 5 3 4 4 11 7 9 3 5 1 6 2 7 4 5 6 5 8 4 5 9 4 10 9 13 7 6 3 8 9 11 14 13 13 15 14 6 4 6 9 6 7 7 8 8 8 8 7 9 9 8 7 11 14 8 13 16 15 15 14 14 11 9 4 6 11
14 12 10 6 7 8 6 8 12 9 7 9 10 9 6 7 6 8 2 4 8 7 9 7 5 8 8 5 11 3 3 9 12 6 5 4 5 6 8 7 2 7 8 7 8 8 11 10 8 6 8 13 11 12 8 10 14 12 6 7 9 6 7 9 5 9 9 10 4 4 6 8 7 3 13 17 12 16 17 14 16 16 15 13 10 8 10 10
15 11 11 12 9 7 11 13 12 7 8 9 9 7 6 5 7 1 3 4 4 9 7 8 8 10 4 4 3 6 9 5 4 7 5 4 7 5 5 8 3 8 7 4 9 10 7 8 7 8 7 12 11 11 11 11 14 10 9 7 8 8 9 9 7 6 8 8 7 9 5 4 6 2 9 15 14 15 16 14 16 18 19 17 14 12 10 8
14 11 7 6 10 11 10 11 8 9 9 7 8 8 6 7 7 2 8 6 4 3 6 5 6 5 4 7 4 4 10 6 4 3 6 4 1 4 3 5 4 10 5 6 9 8 10 11 13 11 9 11 13 13 10 9 10 9 7 11 9 9 7 7 7 8 7 7 5 9 7 0 3 3 8 9 12 12 13 14 15 16 17 17 17 16 13 11
20 11 9 8 9 13 16 13 11 10 7 7 8 8 7 4 7 7 8 9 7 8 2 9 9 11 5 6 7 9 7 2 7 6 6 2 3 2 4 4 9 7 3 4 4 8 11 11 7 16 8 13 14 14 14 9 11 10 10 11 12 12 6 11 6 6 7 6 7 8 2 6 6 7 6 7 8 12 11 13 14 16 14 13 15 17 16 13
11 4 7 5 8 10 12 10 10 9 6 7 8 7 9 5 6 7 7 5 6 8 11 0 2 4 3 3 4 12 6 7 4 3 3 3 1 3 6 4 7 10 5 4 5 7 8 7 3 14 9 14 12 13 10 6 7 10 12 14 12 9 11 9 9 12 13 7 8 3 10 7 8 7 9 7 7 9 10 11 13 16 16 16 14 15 16 14
6 5 5 8 11 9 5 6 4 6 7 8 7 8 9 2 2 8 6 7 10 8 8 9 4 8 2 4 4 4 9 2 6 4 2 4 3 3 5 4 6 4 9 3 5 4 9 9 8 9 10 14 15 12 13 11 12 7 10 10 11 13 12 8 9 5 8 7 6 9 10 9 9 5 9 12 10 9 10 12 11 8 15 16 15 13 14 14
8 8 9 10 6 5 5 4 6 6 7 8 9 12 5 6 7 6 6 9 7 9 5 5 4 4 4 1 3 5 5 3 3 3 1 4 2 9 12 1 5 8 9 2 7 4 6 5 4 6 10 7 3 3 10 15 16 12 9 5 11 10 12 8 7 9 9 7 8 8 3 10 6 6 10 11 11 10 11 10 13 10 10 13 14 13 10 12
8 8 9 8 3 5 6 5 5 7 8 9 7 11 8 5 4 6 6 5 6 7 4 6 2 3 4 4 6 2 2 1 3 1 4 3 3 3 10 7 1 7 8 7 6 5 4 6 3 9 12 7 10 8 10 10 14 17 12 12 9 7 8 9 8 8 6 8 7 5 9 5 2 7 9 10 10 12 11 10 10 12 9 12 12 13 14 12
8 7 7 11 5 5 4 4 7 7 7 8 8 3 4 4 4 4 7 7 7 6 7 10 9 6 3 7 3 3 5 8 2 7 7 3 3 4 8 3 9 11 10 6 10 2 7 4 6 5 9 4 8 8 11 9 11 12 11 10 9 9 4 5 7 10 8 6 6 8 2 2 0 3 6 11 7 8 11 9 7 7 8 7 11 12 8 8
8 9 1 9 8 4 6 7 8 9 9 11 11 4 4 6 5 8 2 4 6 7 8 11 4 2 9 4 5 7 4 1 6 2 1 6 5 0 5 9 6 12 7 8 8 4 5 1 7 5 8 7 6 6 11 13 11 12 10 9 9 5 7 8 8 8 10 8 4 7 4 2 3 2 3 9 11 10 6 10 8 8 7 5 5 11 12 11
7 8 5 6 8 7 6 10 9 9 8 7 5 6 6 4 10 5 5 7 8 4 7 10 7 10 2 3 7 4 8 3 9 4 5 5 5 5 7 2 8 6 8 7 6 14 7 5 6 6 8 10 14 22 13 14 14 11 10 10 9 8 9 9 7 9 7 9 10 10 4 5 2 5 3 5 12 10 10 9 8 6 3 5 6 5 9 11
8 7 10 9 5 7 7 9 12 6 6 4 4 8 6 7 8 4 8 4 7 4 5 8 10 5 5 6 1 8 9 2 3 2 9 4 6 2 7 8 6 10 9 5 7 12 12 4 5 8 8 10 10 15 16 14 16 14 14 14 12 13 12 9 7 7 8 6 10 6 7 5 6 6 10 4 10 9 9 11 8 5 2 5 9 9 9 8
9 9 5 7 5 8 9 9 10 5 6 9 4 5 6 9 7 5 5 2 4 3 6 9 5 3 4 2 4 4 2 4 2 8 5 5 3 7 1 6 7 9 4 8 6 10 6 4 6 7 6 4 6 8 11 12 9 8 8 9 12 11 14 12 11 5 11 12 9 6 2 3 3 4 2 4 10 8 5 3 6 4 3 3 7 9 8 9
10 11 6 6 5 7 9 7 8 7 14 5 3 7 6 8 4 4 8 9 1 5 2 1 7 2 3 5 4 2 4 5 2 7 6 6 7 2 7 5 4 8 10 9 9 7 7 6 4 6 4 5 6 4 7 5 7 5 9 11 13 16 17 13 11 7 6 8 12 6 4 3 3 8 3 3 10 10 2 2 5 3 3 3 5 8 8 9
7 8 7 6 6 7 8 9 11 11 4 7 3 6 4 6 9 3 4 9 4 5 6 6 3 3 7 2 4 3 3 1 5 1 2 6 3 2 6 7 5 4 8 5 5 6 6 5 6 5 7 3 5 5 11 13 9 9 12 14 9 5 9 12 5 3 4 9 2 11 5 7 4 4 7 5 4 15 10 2 2 3 5 4 2 5 6 7
7 10 4 4 8 5 10 8 9 5 7 5 5 6 5 5 6 3 4 6 5 6 6 3 9 4 1 7 1 4 2 5 7 12 8 6 7 5 1 5 8 5 1 4 7 5 5 7 8 8 9 10 6 7 10 10 13 12 12 14 14 11 9 10 6 7 5 5 3 14 13 6 3 4 5 4 4 5 13 9 1 3 3 4 7 5 7 6
7 6 8 6 8 4 7 10 10 8 2 3 3 2 5 4 1 4 11 4 5 4 7 7 7 6 9 5 4 4 6 5 7 3 6 9 8 5 6 8 14 1 10 8 8 7 4 6 8 9 9 7 10 10 4 7 10 10 10 7 8 9 9 9 8 10 7 6 8 7 7 9 4 5 3 5 3 4 9 9 12 6 3 8 4 1 4 8
8 8 11 1 10 7 6 10 7 12 13 10 2 1 3 7 8 5 6 2 2 3 4 3 4 4 6 3 0 7 1 6 2 2 7 4 5 7 3 8 11 17 6 5 5 2 3 7 10 10 11 10 9 9 7 7 9 9 7 7 4 8 7 8 10 10 10 11 11 9 7 9 6 5 5 4 4 6 8 10 7 10 13 10 7 4 2 3
5 7 7 13 13 9 12 6 5 2 7 7 4 5 9 8 9 6 7 8 4 3 3 8 4 4 5 3 0 5 6 4 3 3 5 5 2 4 2 1 5 10 4 4 4 3 2 1 3 8 8 8 9 10 10 8 9 9 7 10 11 9 7 6 7 7 12 11 13 9 7 8 5 4 3 5 5 6 4 6 6 4 9 14 13 6 1 3
8 6 6 9 8 8 10 8 3 3 8 7 7 5 6 3 7 1 5 3 4 3 4 9 2 1 2 8 2 7 2 0 2 7 3 6 4 7 3 4 4 7 5 6 1 4 3 5 6 6 6 7 8 9 9 7 5 7 8 10 11 10 9 5 5 8 10 12 10 10 8 5 5 3 3 1 3 1 5 5 7 6 7 11 12 11 7 7
8 9 9 7 9 8 8 6 10 5 8 6 5 5 7 9 4 8 6 6 6 8 9 8 4 7 2 4 5 1 4 4 7 9 5 6 6 8 5 7 6 6 6 6 4 6 4 6 5 3 7 6 7 8 8 8 7 9 7 6 13 15 10 1 10 13 12 15 10 7 4 4 5 3 1 0 9 13 13 9 7 8 4 5 11 9 8 6
Wind_Direction
345 344 344 345 341 340 339 338 335 332 331 330 329 326 324 323 321 319 318 313 310 307 309 307 308 308 308 309 311 310 312 302 299 280 241 247 287 115 66 95 154 169 193 246 238 243 245 237 239 239 249 246 235 246 260 269 256 273 250 221 320 52 121 232 185 210 128 147 154 165 168 155 127 161 168 151 124 122 141 138 130 144 139 123 124 131 132 132
344 344 343 342 341 340 339 338 334 332 331 329 329 326 323 321 320 318 313 313 310 306 304 307 305 307 308 307 309 310 309 296 285 272 252 282 131 124 127 110 174 186 221 233 233 230 248 235 238 238 244 247 234 253 318 227 320 273 293 283 358 64 242 223 219 163 151 153 150 159 172 164 137 149 149 143 143 147 143 137 145 134 116 121 131 134 135 139
343 343 343 341 338 339 339 336 335 332 330 329 325 325 321 321 318 315 314 310 308 307 304 305 308 307 306 309 308 307 297 295 274 258 253 139 143 148 148 164 179 196 211 221 225 240 242 258 252 242 241 264 233 256 187 148 252 352 315 319 9 349 177 248 194 164 139 143 145 149 181 163 139 148 157 145 144 149 145 150 137 127 130 135 137 140 140 142
343 342 341 341 338 338 337 335 333 331 329 326 325 323 323 320 315 313 309 309 306 306 305 303 305 305 305 305 309 307 291 284 268 88 91 138 152 176 177 167 192 204 223 240 250 247 251 263 277 267 269 256 260 239 253 131 267 142 343 331 340 289 81 84 151 140 135 135 135 144 165 142 163 143 162 145 139 143 153 150 136 138 139 139 142 142 143 143
342 341 340 339 339 337 335 334 332 330 328 326 324 322 320 318 315 310 308 306 305 303 304 304 302 304 304 304 299 289 296 277 92 78 84 99 173 175 170 178 192 212 220 239 257 261 256 257 263 258 258 272 260 248 246 283 273 43 13 356 345 28 94 103 94 102 110 120 126 142 159 141 152 150 155 157 143 145 145 133 136 140 142 143 144 146 145 150
342 340 339 338 337 335 334 332 331 329 326 324 322 319 317 316 313 310 307 303 302 302 301 301 302 303 306 304 298 281 273 46 67 91 130 139 160 164 163 185 208 231 222 240 254 252 243 244 257 255 242 238 258 261 101 262 35 110 51 32 41 65 105 127 122 150 132 128 135 162 146 142 148 143 152 151 136 129 141 141 140 142 143 143 144 146 148 151
341 340 338 337 335 332 332 331 328 327 325 322 320 318 315 313 311 310 305 301 296 298 299 300 302 306 308 297 270 263 255 280 95 126 133 172 142 154 170 198 206 227 233 238 240 245 226 254 248 255 250 253 250 254 285 293 273 54 75 77 74 85 100 113 127 138 119 108 126 252 144 137 143 140 165 134 122 141 162 140 140 139 142 144 147 149 147 149
339 338 338 335 333 332 330 328 327 325 323 321 317 315 313 311 308 306 303 298 295 294 300 300 302 305 317 308 265 231 233 262 91 129 152 146 153 152 179 200 200 209 225 233 240 237 243 239 247 243 254 268 23 307 36 286 267 164 114 94 88 86 105 132 129 119 110 104 179 212 145 132 127 123 136 124 147 150 149 151 139 143 145 149 150 150 147 151
338 338 337 335 333 332 330 328 326 325 322 318 317 315 311 308 305 303 302 298 295 297 297 302 302 305 299 280 286 294 259 37 89 131 147 160 157 166 187 197 199 202 220 232 240 248 243 237 250 255 280 280 329 259 202 263 240 77 123 105 117 101 90 104 100 91 85 94 299 144 130 107 107 120 120 138 141 144 153 145 146 146 151 152 153 149 150 154
337 337 337 335 333 332 329 326 325 323 320 317 316 314 309 305 303 301 298 297 297 296 296 298 300 303 292 267 277 269 75 313 54 146 149 158 159 169 202 220 182 211 222 228 238 240 231 246 251 271 257 273 254 286 299 242 292 115 114 108 113 124 132 136 103 81 107 58 10 134 118 128 122 184 122 151 153 148 148 149 147 151 152 153 154 151 154 159
337 337 336 336 333 331 328 325 323 321 318 317 316 312 307 304 300 297 296 294 294 294 294 294 302 303 289 277 284 293 29 270 345 63 140 162 163 191 200 222 196 215 227 235 242 234 245 254 265 260 283 272 309 262 230 252 13 96 96 78 74 82 116 115 103 136 138 66 337 140 123 123 163 217 141 154 157 157 154 153 151 157 154 156 152 151 157 154
338 336 336 334 333 331 328 325 322 320 319 318 315 309 305 300 297 293 292 293 292 292 291 291 294 282 276 277 262 327 341 29 261 81 145 177 190 197 205 216 204 218 224 240 227 239 242 250 263 279 270 12 248 342 254 244 308 101 99 88 52 62 80 0 120 154 299 104 231 152 123 129 175 136 145 156 165 165 159 151 155 154 155 156 150 149 169 146
338 338 336 336 334 332 329 325 322 320 319 315 312 307 303 298 294 292 290 290 281 282 286 292 287 268 293 282 162 53 279 55 3 225 147 206 194 206 204 224 202 222 237 253 242 230 241 250 262 271 273 274 307 277 12 320 199 120 128 119 137 118 187 224 250 164 143 153 190 229 141 140 122 134 156 163 167 174 157 156 157 155 161 154 151 153 167 148
339 337 338 336 334 333 331 326 323 321 318 314 310 307 301 293 288 287 284 280 286 284 284 284 283 273 274 274 38 18 8 286 127 222 216 158 218 200 212 224 212 217 236 253 277 275 236 243 282 284 292 280 271 321 249 216 277 209 140 149 160 159 199 210 196 155 135 162 211 77 160 147 139 153 162 166 174 182 159 162 160 159 157 154 153 161 157 160
338 338 337 336 335 333 331 327 324 319 317 314 315 306 297 287 282 280 280 278 268 264 271 275 243 263 236 230 63 74 316 280 212 187 199 200 199 171 220 199 221 235 252 263 273 239 259 277 257 257 254 248 251 274 276 259 202 195 153 184 169 195 142 168 268 186 154 178 216 183 195 156 155 157 168 170 180 195 162 167 160 164 153 159 157 166 157 162
338 337 336 336 334 333 330 328 323 320 318 316 309 302 290 281 276 274 271 266 280 291 276 260 225 234 290 268 80 119 214 216 181 180 195 201 197 217 167 196 214 222 219 219 293 342 281 277 246 249 254 244 252 252 248 228 215 207 210 189 183 155 153 153 220 244 246 144 297 239 144 137 175 163 168 175 183 192 172 170 165 162 160 160 161 170 155 162
337 337 335 334 334 332 331 326 323 321 320 315 309 289 277 266 268 262 262 267 264 234 234 269 291 208 288 47 176 204 206 127 89 217 213 271 284 138 188 195 204 214 204 231 244 264 224 235 230 249 256 259 239 232 241 250 242 203 203 243 134 180 162 165 148 202 223 181 201 206 189 176 155 171 168 182 186 193 171 178 168 160 168 162 164 171 155 165
335 335 334 332 333 333 329 325 322 321 323 315 302 294 295 297 263 269 252 245 233 237 237 251 271 295 226 220 214 127 44 128 237 109 243 117 275 138 208 200 189 218 206 223 215 249 205 225 217 246 219 224 238 238 235 223 225 205 189 213 195 147 163 144 159 181 180 193 197 187 214 166 159 172 173 178 193 195 180 179 170 174 167 166 170 169 158 170
333 334 330 333 331 331 329 324 322 323 323 315 285 274 267 261 259 236 263 194 220 192 214 185 209 287 49 9 53 233 227 71 307 182 165 226 191 210 207 234 184 198 208 221 176 224 181 235 213 232 229 213 220 235 238 249 284 302 222 173 206 236 143 164 159 154 174 183 206 193 198 171 167 173 175 182 189 197 189 183 177 175 173 167 177 166 160 173
332 329 330 329 329 329 327 324 322 322 329 315 283 237 225 216 184 209 206 236 244 296 340 322 235 283 222 155 104 49 32 213 224 227 148 253 214 187 217 202 196 220 220 218 167 213 186 222 216 215 227 225 220 230 243 255 269 319 298 231 197 174 106 134 141 137 178 208 199 191 161 186 178 186 200 180 183 196 192 190 180 177 178 175 181 164 166 173
326 328 327 325 326 327 325 324 320 319 325 296 291 292 307 15 343 39 348 241 242 221 330 73 315 331 19 350 211 210 203 166 255 138 241 122 248 195 186 210 195 215 221 228 212 176 216 230 226 223 224 235 226 229 237 251 252 249 276 319 102 211 175 164 115 141 181 201 190 180 201 186 191 181 205 236 185 191 195 191 189 179 181 185 183 163 170 172
327 325 325 325 324 327 323 321 320 319 300 255 270 276 290 16 354 328 321 281 123 165 190 18 296 204 95 282 298 310 208 190 210 165 162 212 189 236 137 236 199 226 200 227 224 185 209 228 232 228 224 235 245 234 240 248 250 261 275 276 229 172 150 128 129 143 199 207 214 190 205 186 197 192 195 237 234 198 189 185 199 186 179 187 190 162 170 176
323 324 323 324 326 323 324 316 318 320 290 225 245 262 304 342 344 340 304 287 268 138 226 280 230 178 175 178 186 237 240 231 168 163 179 213 221 236 182 220 213 238 212 211 223 203 216 216 238 237 222 230 237 240 235 233 245 258 226 227 248 151 157 152 133 142 166 182 158 180 173 322 213 189 196 207 5 9 346 347 283 215 185 188 191 170 173 177
318 323 322 323 325 325 316 322 302 275 224 240 259 297 12 324 340 335 332 283 273 87 6 107 335 11 42 331 97 220 246 84 242 172 137 233 232 150 262 238 241 228 230 202 227 238 219 225 208 238 235 225 237 235 241 243 246 219 257 272 282 117 187 151 143 130 138 145 133 122 95 271 266 218 207 177 105 46 301 262 280 307 303 196 203 178 177 177
319 322 322 321 329 321 320 319 284 233 232 220 244 288 343 349 328 355 310 299 235 111 171 133 296 84 62 232 140 254 215 245 283 112 148 229 228 194 226 227 262 225 240 203 219 241 246 246 192 214 232 221 235 234 218 231 226 245 234 252 279 257 102 116 132 123 148 156 156 161 153 237 237 230 211 165 123 184 215 236 237 217 317 233 194 190 182 181
318 317 322 324 324 326 310 307 237 298 291 279 32 38 340 346 23 322 309 287 210 123 166 142 280 104 312 181 161 223 303 255 111 138 258 205 275 315 330 237 214 226 219 255 213 246 257 242 253 206 210 235 223 235 239 214 243 233 220 228 244 258 121 143 140 147 159 186 166 180 183 180 205 233 221 174 171 202 203 194 248 189 218 224 192 198 184 187
319 316 320 320 323 329 294 295 347 306 278 103 13 10 349 340 30 315 283 244 205 22 169 77 204 92 255 95 270 204 239 80 57 78 249 131 252 166 260 200 219 278 324 260 227 213 232 256 215 236 244 230 220 222 221 203 233 240 255 360 338 279 178 158 219 202 177 181 160 185 190 206 188 209 211 174 177 195 197 193 223 213 212 217 207 195 188 188
317 316 316 316 314 319 299 319 314 308 335 8 3 339 345 23 305 264 277 291 59 231 37 107 19 135 255 140 219 273 46 144 253 111 281 144 226 233 236 276 245 232 212 285 226 163 222 225 217 198 249 237 207 222 208 217 223 253 336 330 262 332 253 211 211 229 256 192 160 199 203 231 217 162 168 168 171 200 215 207 208 216 220 195 225 205 190 193
317 317 319 317 310 272 262 257 305 290 306 348 339 335 324 328 293 306 295 297 56 291 5 130 129 224 205 218 234 234 193 195 298 109 272 319 248 306 271 291 291 241 210 233 268 175 199 251 130 264 253 227 204 195 219 223 244 245 260 273 293 291 290 201 249 225 217 239 234 200 190 232 112 139 155 175 175 198 204 204 198 203 207 203 206 212 193 197
317 319 319 320 304 221 205 217 239 256 299 336 341 309 296 274 256 240 245 189 105 121 242 87 227 99 213 243 150 110 214 159 288 217 192 259 178 217 242 272 273 273 246 181 248 281 335 312 163 194 228 247 241 254 212 218 239 270 261 296 279 273 281 316 282 334 306 238 234 230 203 227 199 189 178 178 201 190 188 198 199 203 207 204 202 208 206 197
316 310 310 318 272 343 306 250 232 242 265 351 322 308 291 262 266 295 298 62 253 111 222 243 148 190 224 243 190 114 290 139 144 177 179 225 199 226 240 228 278 275 315 250 254 250 243 185 194 196 249 238 236 245 211 222 219 223 245 229 261 259 238 222 233 245 258 271 249 236 248 211 250 170 190 207 197 185 180 187 189 195 200 202 190 169 275 222
311 305 293 259 280 330 260 270 349 325 351 320 318 298 282 276 240 246 38 132 257 47 347 83 95 340 25 342 293 300 206 219 146 215 220 201 202 194 187 261 162 260 228 237 224 202 221 221 126 218 262 271 217 229 186 228 237 221 224 250 250 238 226 233 219 237 243 254 195 245 254 234 247 113 184 193 188 191 192 186 187 189 192 191 186 196 205 244
310 299 278 252 262 242 247 256 280 326 317 305 297 287 274 308 286 357 309 36 67 328 55 295 10 296 342 278 97 10 349 15 92 240 185 340 271 235 262 246 43 296 310 282 249 180 214 235 196 220 216 230 259 243 197 197 226 188 205 221 227 244 225 232 218 240 263 233 225 233 199 249 110 122 182 182 189 189 190 183 185 187 186 187 185 198 210 231
300 301 284 201 203 235 267 285 298 307 302 296 278 272 249 278 286 207 304 99 53 182 207 353 340 38 208 303 56 243 184 65 329 22 174 148 285 235 229 229 239 250 219 277 272 213 221 192 210 202 211 188 232 245 242 225 189 196 217 234 225 238 248 235 230 229 224 273 227 184 227 108 232 99 198 182 177 184 185 188 186 187 187 184 189 195 204 215
306 277 231 260 230 244 241 248 259 270 283 286 272 273 304 283 352 16 7 2 48 317 286 91 255 246 177 217 77 255 30 300 294 291 214 243 199 196 261 256 189 235 278 256 293 301 284 272 170 181 225 167 218 238 265 244 197 194 214 233 240 232 229 271 301 260 267 260 231 172 212 94 112 141 137 183 171 161 167 170 173 183 178 180 187 196 199 205
301 200 183 232 226 242 222 222 228 240 266 277 273 268 248 308 17 349 34 330 306 333 12 166 222 253 242 100 309 57 100 309 256 246 10 239 70 256 17 280 357 356 336 277 31 289 318 287 148 160 228 161 211 239 242 283 242 153 184 210 230 268 262 265 257 267 288 276 268 253 114 115 110 132 135 150 152 148 156 154 169 174 177 178 188 192 198 200
249 172 202 226 233 238 190 224 231 243 251 272 292 295 347 51 94 321 32 328 360 354 281 300 19 308 47 329 343 222 72 271 29 356 57 322 207 174 206 76 330 285 267 10 320 233 284 334 304 145 232 180 192 216 246 235 264 293 211 204 210 232 269 259 267 267 251 261 272 234 150 160 152 144 168 163 166 171 166 164 160 156 179 180 184 191 194 189
305 261 243 236 209 162 235 240 250 252 264 258 266 265 271 295 59 325 49 288 271 244 260 320 35 259 319 333 154 279 89 265 19 309 349 174 32 314 307 325 109 318 341 45 288 56 342 263 260 237 229 179 128 247 229 247 248 249 264 34 214 182 213 245 293 258 251 245 243 208 173 136 207 135 170 174 173 174 169 164 157 166 187 185 183 188 193 197
271 276 252 188 172 223 211 233 255 265 261 258 279 251 119 283 21 6 340 326 266 338 306 320 268 296 353 1 357 337 125 176 86 194 260 84 294 97 317 350 245 189 187 311 264 299 200 272 248 241 245 193 173 210 236 203 231 253 270 275 273 255 211 217 212 277 277 274 279 219 212 99 41 134 176 167 176 173 163 163 159 177 192 192 183 184 187 195
260 243 239 148 185 157 258 248 254 248 249 263 265 9 31 326 73 25 322 359 334 295 37 316 39 316 206 329 211 2 9 349 217 88 278 75 306 59 322 101 340 333 2 294 284 297 292 151 273 306 266 243 211 183 240 206 200 211 232 248 235 220 190 222 198 219 239 262 271 297 136 85 328 333 174 169 184 121 120 159 187 190 184 198 180 186 176 187
264 258 197 156 159 176 214 230 236 236 252 242 245 302 270 356 337 130 282 238 296 235 312 320 311 278 14 352 301 36 319 250 26 257 350 144 266 186 54 331 344 322 350 299 255 252 259 275 316 342 274 267 238 170 234 249 215 213 218 215 263 197 231 221 234 195 227 246 272 270 89 53 352 350 84 103 77 82 123 162 192 202 195 206 199 196 183 187
285 265 133 191 119 230 202 239 235 236 248 329 25 79 52 6 276 297 275 160 312 30 145 262 150 299 174 273 25 232 223 213 219 225 116 289 101 290 92 269 315 331 292 326 348 35 351 351 292 294 278 283 339 321 300 266 257 230 212 232 228 254 214 219 240 210 192 232 257 267 265 102 50 322 334 101 115 142 154 155 179 214 165 207 199 210 188 185
243 262 120 191 164 211 227 248 264 256 276 90 275 211 123 194 265 34 289 63 253 173 278 239 37 322 41 287 126 309 360 335 357 325 347 26 187 33 58 315 341 278 297 2 316 39 319 262 263 265 300 301 287 287 287 265 242 233 214 213 210 241 261 253 230 265 283 222 215 224 259 108 130 95 309 27 90 147 169 173 153 192 179 233 176 188 196 170
273 286 233 139 201 225 240 259 271 278 271 108 297 6 101 332 300 10 317 344 303 341 342 1 156 179 279 207 305 304 125 307 47 278 234 201 310 88 268 301 356 295 5 35 320 23 302 52 315 295 268 282 273 259 263 273 268 229 230 238 240 237 259 268 272 264 248 243 283 293 310 92 56 37 312 60 137 169 168 128 110 128 223 176 170 163 150 152
298 282 243 130 211 217 238 248 273 277 283 203 192 231 233 203 259 314 307 334 46 307 303 316 346 318 312 27 309 285 270 289 19 316 319 295 94 234 103 265 317 297 57 29 346 330 297 326 335 307 326 310 301 287 301 316 313 277 261 243 216 227 214 224 235 227 246 292 276 294 127 131 165 159 156 185 121 146 77 3 53 16 341 111 154 159 150 137
259 274 154 206 163 211 243 265 267 270 1 85 236 226 230 217 158 215 227 254 226 325 243 329 181 241 312 279 273 312 334 174 176 219 289 346 268 126 53 308 241 311 60 22 302 290 291 296 270 265 279 315 223 255 264 263 260 257 222 247 277 264 352 326 301 331 331 346 293 56 98 128 121 115 117 120 205 123 144 226 193 83 17 18 101 140 137 139
293 283 287 193 174 229 241 229 278 285 297 149 242 144 209 288 82 184 143 270 111 303 330 283 352 275 120 261 122 288 265 3 23 16 326 111 311 9 221 270 290 81 76 234 229 276 247 265 256 248 251 242 253 239 259 279 283 288 326 336 350 343 324 308 295 232 80 314 190 77 69 84 117 151 125 108 81 98 135 172 177 145 137 30 34 28 103 138
251 267 279 326 303 165 239 219 195 261 17 302 60 35 269 255 189 246 172 249 318 178 288 170 244 249 312 332 347 110 312 291 38 32 320 2 343 354 2 19 346 152 211 263 209 227 295 288 286 286 257 245 247 266 255 260 262 280 300 310 326 340 315 277 283 287 294 282 288 2 74 93 67 76 52 75 72 60 96 129 148 199 178 120 124 212 150 138
274 293 291 351 229 241 192 6 277 218 216 184 300 172 236 268 240 218 348 77 162 223 174 310 263 312 291 16 3 339 213 275 114 11 346 300 333 340 359 18 334 303 313 327 331 350 310 253 286 288 294 281 265 254 239 232 271 277 275 266 315 287 315 319 308 298 292 288 270 295 18 75 63 82 73 54 30 78 101 133 156 159 152 138 98 63 291 168
282 332 324 335 323 298 290 194 246 323 302 89 255 185 260 194 251 95 218 253 261 224 34 279 306 221 229 261 83 251 57 54 125 235 143 286 25 23 5 241 241 266 334 310 342 93 242 313 274 288 289 279 259 255 250 221 215 265 308 325 310 302 308 313 298 339 0 306 302 306 267 90 22 48 72 53 61 104 81 67 114 144 105 127 133 139 51 76
340 316 330 318 310 290 298 317 225 202 272 140 229 210 251 316 287 260 62 164 288 277 204 253 316 127 348 293 118 285 84 298 233 285 211 233 282 167 238 186 244 291 333 315 354 339 292 296 288 281 280 267 259 258 242 241 262 237 249 249 265 268 257 248 31 8 346 334 325 317 288 100 256 16 360 350 121 90 74 58 50 39 88 122 131 140 166 139
329 344 311 272 275 292 261 213 265 220 238 211 218 173 206 183 303 76 250 190 281 301 334 2 19 285 169 247 259 275 20 25 332 11 354 307 316 308 282 322 335 332 322 299 357 274 314 307 285 287 275 288 291 259 251 230 258 259 251 15 18 343 315 183 79 50 15 320 309 306 51 18 16 324 230 352 54 38 28 13 3 6 3 101 120 141 141 102